Stations météo

Publicité
Colmar, France (7197): Température de l'air & dewpoint: 25.10.2020 23:00:00 - 31.10.2020 23:00:00 (CET)Colmar, France (7197): Température de l'air 5cm: 25.10.2020 23:00:00 - 31.10.2020 23:00:00 (CET)Colmar, France (7197): Température de l'air -20cm: 25.10.2020 23:00:00 - 31.10.2020 23:00:00 (CET)Colmar, France (7197): Vitesse du vent & gusts: 25.10.2020 23:00:00 - 31.10.2020 23:00:00 (CET)Colmar, France (7197): Direction du vent: 25.10.2020 23:00:00 - 31.10.2020 23:00:00 (CET)Colmar, France (7197): reduced air pressure: 25.10.2020 23:00:00 - 31.10.2020 23:00:00 (CET)Colmar, France (7197): visibility: 25.10.2020 23:00:00 - 31.10.2020 23:00:00 (CET)Colmar, France (7197): Ensoleillement: 25.10.2020 23:00:00 - 31.10.2020 23:00:00 (CET)Colmar, France (7197): Quantités de précipitations: 25.10.2020 23:00:00 - 31.10.2020 23:00:00 (CET)
Date & Time tt [°C] td [°C] tt 5cm [°C] tt -20cm [°C] ff [km/h] ff [knt] fx [km/h] fx [knt] dd ppp [hPa] vv [km] sd [min] rr [mm]
31.10.2020 23:00:00 10,7 8,3 8,6 11,8 13 7 22 12 SSW 1021,1 20 0 0,0
31.10.2020 22:00:00 11,0 8,4 9,8 11,9 6 3 26 14 SW 1021,0 20 0 0,0
31.10.2020 21:00:00 14,1 8,9 11,1 12,0 17 9 31 17 SW 1020,1 20 0 0,0
31.10.2020 20:00:00 13,4 8,7 12,2 12,1 16 9 32 17 WSW 1020,5 20 0 0,0
31.10.2020 19:00:00 13,7 8,7 12,7 12,2 14 8 32 17 WSW 1020,5 20 0 0,0
31.10.2020 18:00:00 14,8 8,9 13,8 12,2 16 9 27 15 SSW 1020,3 20 0 0,0
31.10.2020 17:00:00 16,9 8,6 15,7 12,1 9 5 21 11 SW 1020,1 20 48 0,0
31.10.2020 16:00:00 18,5 7,9 19,7 11,9 12 7 25 13 WSW 1020,0 20 60 0,0
31.10.2020 15:00:00 18,6 8,5 20,2 11,6 14 8 27 15 SW 1020,1 20 60 0,0
31.10.2020 14:00:00 17,1 9,8 16,6 11,1 13 7 26 14 SW 1020,7 20 51 0,0
31.10.2020 13:00:00 15,3 9,2 17,0 10,7 15 8 22 12 WSW 1022,0 20 58 0,0
31.10.2020 12:00:00 14,3 9,1 16,1 10,3 11 6 19 10 SW 1023,1 20 60 0,0
31.10.2020 11:00:00 12,2 8,5 13,3 10,0 11 6 16 8 SW 1024,3 20 60 0,0
31.10.2020 10:00:00 9,9 8,5 8,1 9,9 5 3 8 4 SW 1025,1 20 57 0,0
31.10.2020 09:00:00 6,6 6,3 2,8 10,0 4 2 6 4 SW 1025,9 20 60 0,0
31.10.2020 08:00:00 2,0 1,9 0,7 10,2 2 1 4 2 SSW 1026,2 2,2 22 0,0
31.10.2020 07:00:00 1,4 1,3 -0,2 10,4 3 2 5 3 SSE 1026,0 0,4 0 0,0
31.10.2020 06:00:00 1,9 1,6 0,7 10,7 4 2 6 3 SE 1026,2 2,7 0 0,0
31.10.2020 05:00:00 3,4 3,3 2,2 10,9 3 2 6 3 SSW 1026,4 0,4 0 0,0
31.10.2020 04:00:00 3,4 3,3 1,7 11,1 3 2 6 3 SSW 1026,7 0,2 0 0,0
31.10.2020 03:00:00 2,2 1,9 1,2 11,3 3 2 4 2 SSW 1027,1 0,2 0 0,0
31.10.2020 02:00:00 3,0 2,7 0,8 11,6 0 0 4 2 N 1027,7 0,8 0 0,0
31.10.2020 01:00:00 3,7 3,1 1,4 11,9 0 0 5 3 N 1027,9 11 0 0,0
31.10.2020 00:00:00 4,6 4,2 1,8 12,2 0 0 8 4 N 1027,6 18 0 0,0
30.10.2020 23:00:00 4,8 4,2 1,9 12,4 3 1 6 3 S 1027,7 11 0 0,0
30.10.2020 22:00:00 5,8 5,1 2,5 12,7 0 0 5 3 N 1027,9 16 0 0,0
30.10.2020 21:00:00 7,1 6,0 4,3 12,9 4 2 8 4 S 1027,6 20 0 0,0
30.10.2020 20:00:00 9,6 7,7 6,6 13,2 5 3 9 5 SSW 1027,3 20 0 0,0
30.10.2020 19:00:00 10,7 8,1 7,7 13,3 5 3 11 6 SSW 1027,1 20 0 0,0
30.10.2020 18:00:00 12,0 8,7 10,8 13,4 8 4 17 9 SSW 1026,6 20 0 0,0
30.10.2020 17:00:00 14,0 9,0 13,3 13,4 11 6 24 13 SW 1026,0 20 7 0,0
30.10.2020 16:00:00 15,1 9,5 15,0 13,4 13 7 23 12 SW 1025,8 20 0 0,0
30.10.2020 15:00:00 16,0 9,6 16,1 13,2 15 8 28 15 SW 1025,7 20 12 0,0
30.10.2020 14:00:00 17,1 9,0 18,6 12,8 16 9 31 17 SW 1025,6 20 57 0,0
30.10.2020 13:00:00 16,4 9,8 16,6 12,6 19 10 31 17 SW 1025,9 20 5 0,0
30.10.2020 12:00:00 15,6 10,4 15,5 12,4 21 11 33 18 SW 1026,1 20 12 0,0
30.10.2020 11:00:00 16,3 10,8 15,0 12,2 21 11 32 17 SW 1025,8 20 29 0,0
30.10.2020 10:00:00 14,4 10,8 13,9 12,1 14 8 32 17 SSW 1025,8 20 2 0,0
30.10.2020 09:00:00 13,5 10,7 12,7 12,1 15 8 33 18 SSW 1025,6 20 3 0,0
30.10.2020 08:00:00 12,8 10,7 12,5 12,1 19 11 34 18 SSW 1025,4 20 0 0,0
30.10.2020 07:00:00 12,9 10,8 12,6 12,1 18 10 34 18 SSW 1024,8 20 0 0,0
30.10.2020 06:00:00 12,9 10,8 12,6 12,1 21 11 36 20 SSW 1024,6 20 0 0,0
30.10.2020 05:00:00 13,0 10,5 12,6 12,2 16 9 40 22 SSW 1024,3 20 0 0,0
30.10.2020 04:00:00 13,4 10,6 12,9 12,1 25 13 44 24 SSW 1023,8 20 0 0,0
30.10.2020 03:00:00 13,2 10,4 12,7 12,2 22 12 39 21 SSW 1024,0 20 0 0,0
30.10.2020 02:00:00 13,3 10,5 12,7 12,2 22 12 37 20 SSW 1024,3 20 0 0,0
30.10.2020 01:00:00 13,0 10,2 12,6 12,2 16 9 39 21 SSW 1024,5 20 0 0,0
30.10.2020 00:00:00 13,0 10,0 12,5 12,3 18 10 33 18 SSW 1024,1 20 0 0,0
29.10.2020 23:00:00 12,9 9,9 12,4 12,3 15 8 29 16 SSW 1024,5 20 0 0,0
29.10.2020 22:00:00 12,9 9,7 12,6 12,4 11 6 32 18 SSW 1024,4 20 0 0,0
29.10.2020 21:00:00 12,8 9,6 12,1 12,4 19 10 36 19 SW 1024,4 20 0 0,0
29.10.2020 20:00:00 12,5 9,7 12,1 12,4 16 9 32 17 SSW 1023,8 20 0 0,0
29.10.2020 19:00:00 12,5 9,9 12,2 12,5 16 9 30 16 SSW 1023,9 20 0 0,0
29.10.2020 18:00:00 12,5 9,9 12,0 12,5 13 7 20 11 SSW 1023,7 20 0 0,0
29.10.2020 17:00:00 12,7 9,7 12,4 12,6 11 6 23 13 SSW 1023,6 20 0 0,0
29.10.2020 16:00:00 13,0 8,9 12,9 12,5 11 6 24 13 SSW 1023,3 20 0 0,0
29.10.2020 15:00:00 13,5 7,9 13,5 12,4 13 7 35 19 SSW 1023,1 20 0 0,0
29.10.2020 14:00:00 14,7 7,7 14,9 12,2 23 13 37 20 WSW 1022,9 20 38 0,0
29.10.2020 13:00:00 13,5 10,1 12,9 11,9 25 14 41 22 WSW 1022,5 20 3 0,0
29.10.2020 12:00:00 13,3 10,1 13,9 11,8 23 12 35 19 SW 1022,7 20 0 0,0
29.10.2020 11:00:00 13,4 9,8 12,8 11,7 17 9 36 19 SW 1022,5 20 0 0,0
29.10.2020 10:00:00 12,2 10,1 12,1 11,7 24 13 42 23 SW 1022,3 20 0 0,0
29.10.2020 09:00:00 12,1 9,5 11,4 11,7 21 11 34 18 SSW 1021,4 20 0 0,0
29.10.2020 08:00:00 11,8 9,0 11,0 11,7 15 8 34 19 SSW 1020,2 20 0 0,0
29.10.2020 07:00:00 11,7 8,4 10,4 11,8 19 11 42 23 SW 1019,1 20 0 0,0
29.10.2020 06:00:00 11,5 9,7 10,4 11,8 24 13 41 22 SW 1018,4 20 0 0,2
29.10.2020 05:00:00 11,6 9,7 10,5 11,9 25 14 43 23 SW 1017,9 20 0 0,4
29.10.2020 04:00:00 11,8 9,7 10,7 11,9 27 14 45 24 SSW 1017,4 19 0 0,0
29.10.2020 03:00:00 12,6 9,2 12,3 11,9 21 11 35 19 SSW 1017,3 20 0 0,0
29.10.2020 02:00:00 13,2 8,9 12,8 11,9 23 12 43 23 SSW 1017,0 20 0 0,0
29.10.2020 01:00:00 13,5 8,5 12,5 12,0 27 15 54 29 SW 1016,9 20 0 0,0
29.10.2020 00:00:00 13,5 9,2 12,8 12,0 28 15 48 26 SW 1016,8 20 0 0,0
28.10.2020 23:00:00 13,2 9,4 11,7 12,1 18 10 33 18 SSW 1016,8 20 0 0,0
28.10.2020 22:00:00 12,6 9,1 11,8 12,1 9 5 21 12 SSE 1016,7 20 0 0,0
28.10.2020 21:00:00 12,9 9,2 12,5 12,2 12 7 34 18 S 1016,6 20 0 0,0
28.10.2020 20:00:00 12,9 8,8 12,4 12,3 18 10 31 17 SSW 1016,1 20 0 0,0
28.10.2020 19:00:00 13,1 8,4 12,6 12,4 24 13 37 20 SSW 1016,4 20 0 0,0
28.10.2020 18:00:00 13,4 8,7 12,8 12,4 24 13 45 24 SSW 1015,9 20 0 0,0
28.10.2020 17:00:00 14,4 8,1 13,9 12,4 31 17 49 26 SW 1015,7 20 10 0,0
28.10.2020 16:00:00 15,0 7,3 14,9 12,3 23 13 - - SW 1015,6 20 0 0,0
28.10.2020 15:00:00 15,4 7,7 15,8 12,0 - - - - - 1015,2 20 21 -
28.10.2020 14:00:00 - - - - - - - - - - - - -
28.10.2020 13:00:00 16,2 7,7 15,5 11,3 17 9 31 17 SW 1016,0 20 33 0,0
28.10.2020 12:00:00 16,1 8,3 15,3 11,0 19 11 41 22 SSW 1016,1 20 45 0,0
28.10.2020 11:00:00 14,7 10,3 14,4 10,7 15 8 31 17 SSW 1015,6 20 36 0,0
28.10.2020 10:00:00 13,8 10,6 12,8 10,5 14 7 36 19 S 1015,2 20 18 0,0
28.10.2020 09:00:00 12,2 10,8 10,5 10,4 17 9 29 16 S 1014,8 20 6 0,0
28.10.2020 08:00:00 10,6 10,0 9,6 10,4 13 7 29 16 S 1014,1 20 0 0,0
28.10.2020 07:00:00 9,9 9,4 9,3 10,5 13 7 29 16 SSE 1013,0 18 0 0,0
28.10.2020 06:00:00 9,8 9,0 9,4 10,4 15 8 29 15 ESE 1012,5 20 0 0,0
28.10.2020 05:00:00 10,0 8,8 9,1 10,4 14 8 27 15 SSE 1012,5 20 0 0,0
28.10.2020 04:00:00 10,1 7,9 8,7 10,4 15 8 27 15 SSW 1012,1 20 0 0,2
28.10.2020 03:00:00 10,5 6,4 10,1 10,5 14 7 37 20 S 1012,1 20 0 0,0
28.10.2020 02:00:00 10,9 6,6 9,8 10,5 18 10 34 18 S 1012,3 20 0 0,0
28.10.2020 01:00:00 10,1 5,3 9,3 10,5 12 6 26 14 SSE 1012,3 20 0 0,0
28.10.2020 00:00:00 10,4 5,2 9,7 10,6 11 6 35 19 S 1012,7 20 0 0,0
27.10.2020 23:00:00 10,9 5,0 9,6 10,7 17 9 33 18 S 1012,5 20 0 0,0
27.10.2020 22:00:00 10,0 4,6 9,1 10,8 20 11 34 19 S 1012,5 20 0 0,0
27.10.2020 21:00:00 9,5 4,9 8,6 10,9 16 9 27 15 S 1012,3 20 0 0,0
27.10.2020 20:00:00 9,0 4,8 8,3 11,0 8 5 22 12 S 1012,4 20 0 0,0
27.10.2020 19:00:00 10,0 5,0 7,6 11,1 10 5 20 11 S 1012,3 20 0 0,0
27.10.2020 18:00:00 10,1 5,1 9,1 11,2 8 4 20 11 S 1012,2 20 0 0,0
27.10.2020 17:00:00 11,3 5,2 11,0 11,2 13 7 28 15 SSW 1012,1 20 31 0,0
27.10.2020 16:00:00 12,6 5,7 13,2 11,1 13 7 35 19 SSW 1012,1 20 54 0,0
27.10.2020 15:00:00 13,4 6,0 11,7 10,9 18 10 30 16 SW 1012,5 20 41 0,0
27.10.2020 14:00:00 11,5 6,0 11,8 10,7 17 9 32 17 SSW 1012,8 20 5 0,0
27.10.2020 13:00:00 12,2 6,2 11,8 10,5 20 11 35 19 SSW 1013,0 20 14 0,0
27.10.2020 12:00:00 11,5 6,2 11,8 10,3 21 11 37 20 SSW 1013,0 20 7 0,0
27.10.2020 11:00:00 11,0 6,5 11,4 10,1 20 11 35 19 SSW 1013,0 20 17 0,0
27.10.2020 10:00:00 10,9 6,4 10,0 9,9 23 12 40 21 SSW 1012,5 20 51 0,0
27.10.2020 09:00:00 9,7 6,6 8,4 9,9 18 10 29 16 SSW 1012,3 20 56 0,0
27.10.2020 08:00:00 8,4 6,0 7,5 10,0 15 8 26 14 S 1012,4 20 0 0,0
27.10.2020 07:00:00 7,7 6,0 7,1 10,1 10 5 26 14 S 1012,0 20 0 0,0
27.10.2020 06:00:00 7,7 6,0 6,8 10,3 15 8 23 13 S 1011,4 20 0 0,0
27.10.2020 05:00:00 7,9 6,0 6,6 10,4 16 9 24 13 S 1010,4 20 0 0,0
27.10.2020 04:00:00 7,5 5,8 6,8 10,5 12 7 22 12 S 1010,3 20 0 0,0
27.10.2020 03:00:00 7,6 6,1 7,0 10,6 11 6 30 16 S 1010,8 20 0 0,0
27.10.2020 02:00:00 7,4 6,0 6,2 10,8 14 7 23 13 SSW 1010,7 20 0 0,0
27.10.2020 01:00:00 7,1 5,9 6,6 10,9 8 4 16 9 S 1010,7 20 0 0,0
27.10.2020 00:00:00 7,6 5,9 7,1 11,1 9 5 23 12 S 1011,0 20 0 0,0
26.10.2020 23:00:00 7,7 6,2 7,1 11,2 14 8 22 12 SSW 1010,8 20 0 0,0
26.10.2020 22:00:00 8,2 5,8 6,9 11,4 11 6 25 13 S 1010,6 20 0 0,0
26.10.2020 21:00:00 7,8 6,3 6,9 11,5 13 7 21 12 S 1010,4 20 0 0,0
26.10.2020 20:00:00 7,9 6,4 7,3 11,6 9 5 20 11 SSW 1010,1 20 0 0,0
26.10.2020 19:00:00 8,3 6,1 7,9 11,8 11 6 23 12 S 1009,9 20 0 0,0
26.10.2020 18:00:00 8,4 6,7 8,0 11,8 11 6 24 13 S 1009,4 20 0 0,0
26.10.2020 17:00:00 9,2 7,1 8,9 11,9 10 6 21 11 S 1008,4 20 12 0,0
26.10.2020 16:00:00 9,3 7,9 9,2 11,9 8 5 21 11 SE 1008,6 20 0 0,0
26.10.2020 15:00:00 9,6 7,9 9,2 12,0 13 7 28 15 S 1008,7 20 0 0,0
26.10.2020 14:00:00 9,1 7,5 9,0 11,9 14 8 28 15 S 1008,5 20 0 0,0
26.10.2020 13:00:00 8,9 7,5 7,9 12,0 14 7 28 15 S 1008,6 20 0 0,2
26.10.2020 12:00:00 8,2 7,0 7,8 12,1 13 7 25 13 S 1008,7 20 0 0,2
26.10.2020 11:00:00 8,1 7,0 7,9 12,2 12 6 22 12 S 1008,4 20 0 0,0
26.10.2020 10:00:00 8,1 6,4 7,7 12,4 13 7 26 14 S 1008,7 20 0 0,0
26.10.2020 09:00:00 8,2 6,2 7,9 12,5 16 9 36 19 SSW 1008,4 20 0 0,0
26.10.2020 08:00:00 8,6 7,2 8,2 12,7 16 9 31 17 SSW 1007,7 20 0 0,6
26.10.2020 07:00:00 8,9 7,8 8,2 12,9 12 6 21 11 S 1006,6 14 0 2,4
26.10.2020 06:00:00 9,4 8,3 8,8 13,0 13 7 22 12 SW 1006,5 19 0 2,3
26.10.2020 05:00:00 10,1 9,5 9,6 13,1 8 4 14 8 SSW 1004,9 14 0 2,0
26.10.2020 04:00:00 10,7 9,8 10,1 13,2 9 5 17 9 SSW 1005,5 20 0 0,6
26.10.2020 03:00:00 11,2 10,4 10,7 13,3 11 6 27 15 SSW 1005,4 20 0 1,6
26.10.2020 02:00:00 11,6 10,8 11,1 13,3 11 6 19 10 S 1005,8 18 0 0,6
26.10.2020 01:00:00 12,0 11,5 11,5 13,4 4 2 10 6 SE 1005,2 12 0 0,2
26.10.2020 00:00:00 12,4 11,5 11,7 13,4 6 4 16 8 NNW 1005,4 13 0 0,8
25.10.2020 23:00:00 13,8 10,4 13,3 13,4 3 2 13 7 NE 1005,2 20 0 0,0

tt = Température de l'air
td = dewpoint
tt 5cm = Température de l'air 5cm
tt -20cm = Température de l'air -20cm
ff = Vitesse du vent
fx = gusts
dd = Direction du vent
ppp = reduced air pressure
vv = visibility
sd = Ensoleillement
rr = Quantités de précipitations

stations d'obs. à proximité